Location: Flotzheim
(48.8375°N, 10.8136°E)
Time: 04:09:44
(UTC+00:00)

USA 234 - Pass Details

Date: 23 January 2021
Orbit: 1100 x 1107 km, 123.0° (Epoch: 25 February)

Event Time Altitude Azimuth Distance (km) Brightness Sun altitude
Exits shadow 18:13:55 36° 63° (ENE) 1,686 3.7 -21.7°
Maximum altitude 18:16:12 50° 14° (NNE) 1,385 3.6 -22.1°
Drops below altitude 10° 18:22:27 10° 302° (WNW) 2,968 6.3 -23.1°
Sets 18:25:00 0° 297° (WNW) 3,928 7.1 -23.5°
